Regional Weather Roundup
Issued by NWS

Home | Current Version | Previous Version | Text Only | Print | Product List | Glossary Off
Versions: 1 2 3 4 5 6 7 8 9 10 11 12 13 14 15 16 17 18 19 20 21 22 23 24 25 26 27 28 29 30 31 32 33 34 35 36 37 38 39 40 41 42 43 44 45 46 47 48 49 50

000
ASUS43 KOAX 170902
RWRNE

WEATHER ROUNDUP FOR NEBRASKA
NATIONAL WEATHER SERVICE OMAHA NE
400 AM CDT TUE OCT 17 2017

NOTES: SATELLITE DATA IS BEING USED TO AUGMENT CLOUD COVER ABOVE
       12000 FEET.
       "FAIR" INDICATES FEW OR NO CLOUDS BELOW 12,000 FEET WITH NO
       SIGNIFICANT WEATHER AND/OR OBSTRUCTIONS TO VISIBILITY.


NEZ001>004-019>022-054>056-171000-
NEBRASKA PANHANDLE

CITY           SKY/WX    TMP DP  RH WIND       PRES   REMARKS
SCOTTSBLUFF    CLOUDY    32  25  75 N5        30.18S WCI  27
ALLIANCE       CLOUDY    29  23  78 SW3       30.16S
CHADRON        CLOUDY    33  25  72 S3        30.13F
GORDON         FAIR      36  28  73 CALM      30.13S
KIMBALL        CLOUDY    33  24  67 W7        30.23S WCI  27
SIDNEY         CLOUDY    34  24  67 NW10      30.20S WCI  26
$$

NEZ057>060-069>072-079>082-171000-
SOUTHWEST NEBRASKA

CITY           SKY/WX    TMP DP  RH WIND       PRES   REMARKS
NORTH PLATTE   CLEAR     37  32  82 NW3       30.13R
IMPERIAL       CLOUDY    42  29  59 W9        30.16R
LEXINGTON      CLEAR     39  34  84 W6        30.10S WCI  34
MCCOOK         CLEAR     42  35  76 W10       30.12R
OGALLALA       CLEAR     35  32  88 W5        30.16R WCI  31
$$

NEZ005>010-023>029-035>040-094-171000-
NORTH CENTRAL NEBRASKA

CITY           SKY/WX    TMP DP  RH WIND       PRES   REMARKS
VALENTINE      CLEAR     36  32  85 W5        30.10S WCI  32
AINSWORTH      CLEAR     41  35  77 W7        30.09F
BROKEN BOW     CLEAR     49  36  61 NW5       30.09R
O`NEILL        CLEAR     44  39  83 W6        30.07S
ORD            CLEAR     39  34  82 NW3       30.06S
$$

NEZ041-046>049-061>064-073>077-083>087-171000-
SOUTH CENTRAL NEBRASKA

CITY           SKY/WX    TMP DP  RH WIND       PRES   REMARKS
GRAND ISLAND   CLEAR     47  39  74 SW6       30.08R
AURORA         CLEAR     48  38  69 SW7       30.07F
HASTINGS       CLEAR     48  38  68 SW5       30.09S
HEBRON         CLEAR     52  40  64 SW6       30.10F
HOLDREGE       CLEAR     46  37  72 SW3       30.08S
KEARNEY        CLEAR     46  37  71 W5        30.08S
YORK           CLEAR     46  39  76 S6        30.08S
$$

NEZ011>018-030>034-042>045-171000-
NORTHEAST NEBRASKA

CITY           SKY/WX    TMP DP  RH WIND       PRES   REMARKS
NORFOLK        CLEAR     45  37  73 SW3       30.06S
ALBION         CLEAR     42  38  87 CALM      30.07S
BLAIR          CLEAR     52  41  65 S9        30.08S
COLUMBUS       CLEAR     50  39  66 SW5       30.08S
FREMONT        CLEAR     53  40  61 S6        30.08F
TEKAMAH        CLEAR     49  32  52 S7        30.07S
WAYNE          CLEAR     43  39  85 S3        30.05F
$$

NEZ050>053-065>068-078-088>093-171000-
SOUTHEAST NEBRASKA

CITY           SKY/WX    TMP DP  RH WIND       PRES   REMARKS
LINCOLN        CLEAR     53  40  61 S9        30.10F
OMAHA EPPLEY   CLEAR     49  41  74 S10       30.10F
BEATRICE       CLEAR     53  41  65 S9        30.12S
FALLS CITY     PTCLDY    50  40  68 S6        30.15S
NEBRASKA CITY  CLEAR     48  41  76 S7        30.13S
PLATTSMOUTH    CLEAR     51  42  71 S8        30.10F
$$

NEZ044-045-051>053-067-171000-
OMAHA AREA

CITY           SKY/WX    TMP DP  RH WIND       PRES   REMARKS
OMAHA EPPLEY   CLEAR     49  41  74 S10       30.10F
BLAIR          CLEAR     52  41  65 S9        30.08S
FREMONT        CLEAR     53  40  61 S6        30.08F
MILLARD        CLEAR     48  42  78 SE5       30.10S
OFFUTT AFB     CLEAR     44  40  84 E5        30.10
PLATTSMOUTH    CLEAR     51  42  71 S8        30.10F
WAHOO          FAIR      53  40  60 S8        30.08F
$$




USA.gov is the U.S. government's official web portal to all federal, state and local government web resources and services.